[[{"header":{"parameterUnit":"m.s-1","parameterCategory":1,"la1":30.2991,"la2":30.254,"lo1":-89.0895,"lo2":-89.0444,"dy":0.0017,"dx":0.0017,"nx":28,"ny":28,"refTime":"2024-07-24T03:00:00:Z","depth":0,"parameterNumber":2,"parameterNumberName":"U-component_of_WINDS"},"data":[0,0,0,0,0,0,0,0,0,0,0,0,0,0,0,0,0,0,0,0,0,0,0,0,0,0,0,0,0,0,0,0,0,0,0,0,0,0,0,0,0,0,0,0,0,0,0,0,0,0,0,0,0,0,0,0,0,0,0.0873,0.0873,0,0.0892,0.0892,0.0892,0.0896,0.0896,0.0896,0.0895,0.0915,0.0916,0.0917,0,0,0,0,0,0,0,0,0,0,0,0,0,0.0841,0.0841,0.0873,0.0873,0.0873,0.0891,0.0892,0.0892,0.0896,0.0896,0.0896,0.0895,0.0915,0.0916,0.0917,0,0,0,0,0,0,0,0,0,0,0,0,0,0.0857,0.0841,0.0873,0.0877,0.0878,0.0891,0.0892,0.0892,0.0896,0.0896,0.0895,0.0895,0.0915,0.0916,0.0917,0.0927,0,0,0.092,0.092,0,0,0,0,0,0,0,0,0.0856,0.0858,0.0876,0.0877,0.0878,0.0891,0.0888,0.0904,0.0896,0.0889,0.0895,0.0895,0.0908,0.0909,0.0913,0.0928,0.0929,0.092,0.0921,0.0921,0.0921,0,0,0,0,0,0,0,0.0855,0.0857,0.088,0.0877,0.0877,0.0879,0.0881,0.0891,0.0899,0.089,0.089,0.0892,0.0908,0.0912,0.0914,0.093,0.092,0.0921,0.0922,0.0922,0.0955,0.0955,0,0,0,0,0,0,0.0853,0.0856,0.088,0.0881,0.0866,0.0879,0.0882,0.0887,0.0899,0.0901,0.0892,0.0892,0.0911,0.0913,0.0914,0.0928,0.0921,0.0922,0.0923,0.0955,0.0955,0.0955,0,0,0,0,0,0,0.0852,0.0855,0.0879,0.0868,0.0872,0.088,0.0886,0.0887,0.0892,0.0901,0.0903,0.0895,0.0911,0.0913,0.0924,0.0929,0.0923,0.0923,0.0954,0.0955,0.0955,0.0955,0,0,0,0,0,0,0.0851,0.0854,0.0858,0.0869,0.0872,0.0888,0.0886,0.0888,0.0893,0.0894,0.0904,0.0906,0.0911,0.0923,0.0925,0.093,0.0924,0.0954,0.0954,0.0955,0.0954,0.0955,0.0956,0,0,0,0,0,0.085,0.0857,0.0858,0.0861,0.0877,0.0888,0.089,0.0895,0.0894,0.0898,0.0904,0.0906,0.0928,0.0924,0.0927,0.0932,0.0954,0.0954,0.0955,0.0954,0.0955,0.0955,0,0,0,0,0,0,0.0847,0.0859,0.086,0.0871,0.0879,0.0889,0.0894,0.0896,0.0904,0.0904,0.091,0.0913,0.0924,0.0929,0.0924,0.0943,0.0941,0.0942,0.0939,0.094,0.094,0.0939,0.0925,0,0,0,0,0,0.0848,0.0856,0.0865,0.0874,0.0878,0.0885,0.089,0.0894,0.0902,0.0905,0.0912,0.092,0.0929,0.0935,0.0943,0.0955,0.0958,0.096,0.0961,0.0961,0.0962,0.0969,0.097,0.0957,0.0957,0.0957,0,0,0.0849,0.0857,0.0861,0.0874,0.088,0.0889,0.0888,0.0897,0.0903,0.0907,0.0918,0.0923,0.0932,0.0944,0.095,0.0949,0.0966,0.0962,0.0962,0.0963,0.097,0.0971,0.0972,0.0958,0.0958,0.0958,0,0,0.0857,0.0863,0.0871,0.0877,0.0887,0.0892,0.0894,0.0904,0.0908,0.0919,0.0922,0.0929,0.0944,0.0951,0.0957,0.0967,0.0969,0.0969,0.0973,0.0979,0.0981,0.0981,0.0985,0.0987,0.097,0.097,0.097,0,0.0857,0.087,0.0875,0.0884,0.0889,0.0893,0.0901,0.0907,0.0919,0.0923,0.0922,0.0941,0.0948,0.0961,0.0964,0.0968,0.0971,0.0968,0.098,0.0981,0.0982,0.0986,0.0987,0.097,0.097,0.097,0.097,0,0.087,0.0879,0.0884,0.0896,0.0902,0.0911,0.0918,0.0924,0.0926,0.0932,0.0943,0.0951,0.0962,0.0965,0.0968,0.0979,0.0979,0.0979,0.0977,0.0983,0.0987,0.0988,0.0971,0.0971,0.0971,0.097,0,0,0.0876,0.089,0.0892,0.0898,0.0909,0.0916,0.0925,0.0935,0.094,0.0948,0.0956,0.0969,0.0969,0.0976,0.0979,0.0985,0.0993,0.0985,0.0985,0.0986,0.1006,0.1006,0.1008,0.0995,0.0995,0.0995,0.1006,0,0.0884,0.09,0.0906,0.0919,0.0927,0.0931,0.0939,0.0947,0.0952,0.096,0.0966,0.0975,0.0975,0.0978,0.0984,0.0991,0.0997,0.099,0.1002,0.1003,0.1,0.101,0.101,0.102,0.1007,0.1007,0.1008,0,0.0896,0.0905,0.0919,0.093,0.0933,0.094,0.0951,0.0958,0.0967,0.0971,0.0978,0.0981,0.0991,0.0988,0.1002,0.0997,0.1003,0.1007,0.1007,0.1009,0.1006,0.1012,0.1023,0.1024,0.101,0.101,0.101,0,0.0899,0.0914,0.0925,0.093,0.0942,0.0947,0.0952,0.0961,0.0967,0.0976,0.098,0.099,0.0996,0.1004,0.101,0.1007,0.1023,0.1021,0.1027,0.1026,0.103,0.103,0.1042,0.1033,0.1033,0.1033,0.1033,0,0.0908,0.0917,0.0927,0.0933,0.0943,0.0949,0.0959,0.0965,0.0973,0.0981,0.0985,0.0992,0.1,0.1008,0.1013,0.1024,0.1027,0.103,0.1031,0.103,0.1029,0.1033,0.1033,0.1033,0.1033,0.1033,0.1033,0,0.0913,0.092,0.0932,0.0943,0.0946,0.0953,0.0962,0.0969,0.0975,0.0985,0.0987,0.0996,0.1007,0.1013,0.1027,0.103,0.1042,0.1043,0.1039,0.1039,0.1045,0.1044,0.106,0.1063,0.1052,0.1052,0.1052,0,0.0918,0.0925,0.0937,0.0943,0.0948,0.0957,0.0963,0.097,0.0977,0.0988,0.0993,0.1004,0.1013,0.1029,0.1037,0.1047,0.1048,0.1053,0.105,0.1048,0.1049,0.1048,0.1049,0.1054,0.1054,0.1054,0.1054,0,0.0927,0.093,0.0939,0.0949,0.0957,0.0965,0.0973,0.0978,0.0986,0.0993,0.1004,0.1011,0.1024,0.1035,0.1046,0.1052,0.1054,0.1055,0.1057,0.1055,0.1053,0.1054,0.104,0.1054,0.1054,0.1054,0.1054,0.1054,0.0932,0.0938,0.0948,0.0958,0.0965,0.0973,0.098,0.0987,0.0996,0.1008,0.1011,0.1022,0.1032,0.1047,0.1053,0.1062,0.1061,0.1064,0.1065,0.1065,0.1065,0.1051,0.1064,0.1064,0.1064,0.1064,0.1064,0,0.0941,0.0948,0.0957,0.0969,0.0977,0.0979,0.0988,0.0995,0.1005,0.1013,0.1022,0.1035,0.1045,0.1054,0.1064,0.107,0.1071,0.1073,0.1072,0.1074,0.1065,0.1063,0.1071,0.1071,0.1071,0.1071,0.1071,0.1071,0.0947,0.0958,0.0963,0.0978,0.0984,0.0995,0.1001,0.1008,0.1015,0.1029,0.1038,0.1043,0.1052,0.1064,0.1074,0.1076,0.108,0.1081,0.1083,0.1075,0.1074,0.1073,0.1071,0.1081,0.1081,0.1091,0.1091,0.1091]},{"header":{"parameterUnit":"m.s-1","parameterCategory":1,"la1":30.2991,"la2":30.254,"lo1":-89.0895,"lo2":-89.0444,"dy":0.0017,"dx":0.0017,"nx":28,"ny":28,"refTime":"2024-07-24T03:00:00:Z","depth":0,"parameterNumber":3,"parameterNumberName":"V-component_of_WINDS"},"data":[0,0,0,0,0,0,0,0,0,0,0,0,0,0,0,0,0,0,0,0,0,0,0,0,0,0,0,0,0,0,0,0,0,0,0,0,0,0,0,0,0,0,0,0,0,0,0,0,0,0,0,0,0,0,0,0,0,0,1.685,1.6849,0,1.6773,1.6773,1.6772,1.6737,1.6737,1.6737,1.6737,1.6653,1.6651,1.6649,0,0,0,0,0,0,0,0,0,0,0,0,0,1.6961,1.6959,1.685,1.6849,1.6848,1.6774,1.6773,1.6771,1.6737,1.6737,1.6737,1.6737,1.6654,1.6651,1.6649,0,0,0,0,0,0,0,0,0,0,0,0,0,1.6901,1.6958,1.685,1.6822,1.6819,1.6774,1.6773,1.6771,1.6736,1.6737,1.6737,1.6737,1.6655,1.6652,1.6648,1.6624,0,0,1.6638,1.6636,0,0,0,0,0,0,0,0,1.6905,1.6897,1.6827,1.6824,1.682,1.6765,1.6781,1.6722,1.6736,1.6768,1.6737,1.6737,1.669,1.6684,1.6669,1.662,1.6617,1.6637,1.6635,1.6634,1.6633,0,0,0,0,0,0,0,1.6909,1.69,1.682,1.6826,1.6822,1.6811,1.6803,1.677,1.6729,1.6765,1.6762,1.6754,1.6688,1.6672,1.6667,1.6616,1.6637,1.6634,1.6632,1.6631,1.6542,1.6542,0,0,0,0,0,0,1.6918,1.6904,1.6822,1.6817,1.6864,1.6809,1.68,1.6782,1.6729,1.6721,1.6754,1.6752,1.6678,1.6671,1.6664,1.6631,1.6634,1.6631,1.6629,1.6543,1.6542,1.6542,0,0,0,0,0,0,1.6921,1.6911,1.6825,1.686,1.6848,1.6807,1.6788,1.6781,1.6765,1.6721,1.6713,1.6746,1.6678,1.6668,1.6634,1.6628,1.6629,1.6626,1.6543,1.6542,1.6542,1.6568,0,0,0,0,0,0,1.6924,1.6912,1.6904,1.686,1.6846,1.6799,1.6787,1.6779,1.676,1.6757,1.6711,1.6703,1.6677,1.664,1.6631,1.6623,1.6623,1.6543,1.6543,1.6542,1.6567,1.6568,1.6569,0,0,0,0,0,1.6928,1.6914,1.6904,1.6894,1.6836,1.6799,1.6791,1.6763,1.6759,1.675,1.6721,1.6705,1.663,1.6637,1.6626,1.6618,1.6544,1.6543,1.6542,1.6567,1.6568,1.6569,0,0,0,0,0,0,1.6957,1.6907,1.6896,1.6867,1.6838,1.6793,1.678,1.6765,1.6734,1.6733,1.6698,1.6687,1.6656,1.6633,1.6641,1.6591,1.6585,1.6583,1.6607,1.6608,1.6609,1.6615,1.662,0,0,0,0,0,1.696,1.6936,1.6893,1.6872,1.6858,1.6822,1.6805,1.6786,1.6753,1.674,1.6708,1.6676,1.6645,1.6625,1.6594,1.6564,1.6552,1.6552,1.6553,1.6554,1.6552,1.6533,1.6532,1.654,1.654,1.654,0,0,1.6966,1.6936,1.6923,1.6877,1.6852,1.6826,1.6811,1.6785,1.6765,1.6735,1.6701,1.6677,1.6638,1.6606,1.659,1.6586,1.6548,1.6553,1.6555,1.6552,1.6532,1.6532,1.6531,1.6539,1.654,1.654,0,0,1.6963,1.6939,1.6918,1.6893,1.6856,1.6832,1.6827,1.6784,1.6768,1.6734,1.6711,1.6685,1.6633,1.6606,1.6586,1.6572,1.6555,1.6563,1.6568,1.6549,1.6549,1.6548,1.6542,1.6541,1.6561,1.6561,1.6561,0,1.6975,1.6937,1.6909,1.6884,1.6863,1.6837,1.6814,1.6791,1.6745,1.6731,1.6727,1.6661,1.6632,1.6593,1.659,1.6574,1.6566,1.6568,1.6551,1.655,1.6549,1.6543,1.6542,1.6562,1.6562,1.6562,1.6562,0,1.6952,1.6926,1.6913,1.6871,1.685,1.6826,1.6792,1.6773,1.6756,1.6732,1.6697,1.6662,1.6624,1.6613,1.6595,1.657,1.6568,1.6559,1.6552,1.655,1.6544,1.6542,1.6564,1.6564,1.6563,1.6563,0,0,1.6966,1.6909,1.6904,1.6884,1.6841,1.6819,1.6793,1.6757,1.6741,1.671,1.6686,1.6643,1.6633,1.661,1.6588,1.6573,1.6563,1.6564,1.6563,1.6565,1.6532,1.654,1.6538,1.6552,1.6551,1.6551,1.6535,0,1.6957,1.6912,1.6885,1.685,1.6825,1.6799,1.6776,1.6746,1.6722,1.6696,1.6669,1.6638,1.6629,1.6614,1.6597,1.6568,1.6556,1.6569,1.6528,1.6527,1.6538,1.6535,1.6543,1.653,1.6533,1.6532,1.6532,0,1.6941,1.6912,1.6874,1.6833,1.6822,1.6802,1.6766,1.6742,1.6706,1.669,1.6664,1.6643,1.6612,1.6609,1.6566,1.6575,1.6556,1.6539,1.6538,1.6533,1.6529,1.6529,1.6525,1.6523,1.6528,1.6529,1.6529,0,1.6954,1.6905,1.6876,1.686,1.6811,1.6798,1.6777,1.6742,1.6721,1.6689,1.6675,1.664,1.662,1.6592,1.6561,1.6561,1.652,1.6514,1.6505,1.6506,1.6497,1.6498,1.649,1.6486,1.6486,1.6486,1.6486,0,1.6946,1.6924,1.6881,1.6864,1.6838,1.6807,1.6781,1.6757,1.6726,1.6702,1.6676,1.6654,1.6615,1.6586,1.6562,1.6529,1.652,1.6505,1.6499,1.6507,1.6509,1.6495,1.6494,1.6486,1.6486,1.6486,1.6486,0,1.6956,1.6927,1.6894,1.6851,1.6839,1.6822,1.6784,1.6765,1.674,1.671,1.6701,1.6661,1.6627,1.6593,1.6546,1.653,1.6497,1.6489,1.651,1.6506,1.6499,1.65,1.648,1.6476,1.6476,1.6476,1.6476,0,1.6953,1.6936,1.6892,1.6875,1.6854,1.6827,1.6806,1.6774,1.6753,1.6711,1.6697,1.6661,1.6631,1.6577,1.6542,1.6506,1.6496,1.6492,1.6491,1.65,1.6496,1.6497,1.6494,1.6493,1.6493,1.6493,1.6494,0,1.6951,1.6938,1.691,1.6877,1.6853,1.6825,1.6796,1.6783,1.6745,1.6723,1.6688,1.6665,1.6618,1.6582,1.6542,1.6517,1.6498,1.6494,1.649,1.6499,1.6511,1.6504,1.6512,1.6495,1.6495,1.6495,1.6495,1.6494,1.6954,1.6937,1.6904,1.6873,1.6848,1.6822,1.6801,1.6774,1.6746,1.6706,1.6688,1.6653,1.6616,1.6561,1.6537,1.6508,1.6503,1.6497,1.6496,1.6495,1.6496,1.6516,1.65,1.65,1.65,1.65,1.65,0,1.695,1.6927,1.69,1.6861,1.6836,1.6823,1.6789,1.6769,1.6739,1.6708,1.6679,1.6638,1.6603,1.6566,1.6529,1.6512,1.6502,1.6503,1.6504,1.6498,1.6503,1.651,1.6512,1.6512,1.6512,1.6512,1.6512,1.6512,1.6945,1.6916,1.6898,1.6856,1.6832,1.6799,1.6781,1.6755,1.673,1.6687,1.6658,1.6635,1.66,1.656,1.6527,1.6516,1.6503,1.6507,1.6494,1.6499,1.6498,1.6497,1.6504,1.6504,1.6504,1.6491,1.6491,1.6491]}]]